Presure
348 336 289 276 290 284 267 249 237 232 234 205 197 189 185 180 187 184 223 196 197 186 182 175 166 161 176 183 153 168 166 151 159 164 163 152 151 147 151 153 145 156 161 171
342 322 324 274 280 280 278 260 248 238 236 235 200 194 195 191 182 195 232 217 195 206 174 187 173 169 181 182 190 183 166 162 156 157 162 159 154 159 159 154 151 150 149 155
319 318 308 293 272 284 276 274 261 250 238 241 226 199 189 196 198 198 189 211 214 202 200 182 180 183 171 191 183 167 187 179 168 163 159 158 158 159 143 143 143 143 144 144
312 322 341 343 273 273 279 274 273 265 245 240 240 223 187 195 199 198 195 181 210 224 199 188 188 182 184 183 169 165 182 181 186 175 174 168 166 166 164 155 155 155 155 152
313 311 347 294 276 264 279 276 272 273 260 244 241 232 223 201 194 200 205 192 198 225 225 201 193 190 182 166 176 164 171 164 191 184 189 185 176 163 167 166 169 171 169 168
325 336 320 314 310 268 264 272 272 267 264 263 254 243 234 220 217 205 206 207 204 191 211 213 201 196 185 179 164 180 185 176 172 190 173 180 189 164 147 138 136 159 157 159
309 329 317 314 312 273 261 259 264 272 311 262 261 259 249 248 244 219 216 213 208 219 201 214 209 204 172 189 189 171 176 208 173 156 179 185 190 180 180 179 173 164 162 155
326 313 308 311 304 304 264 256 260 260 256 304 268 263 257 262 258 250 239 235 234 230 253 198 216 207 216 206 182 194 180 179 180 183 189 165 178 182 149 170 173 176 174 158
325 313 317 301 295 282 285 282 250 281 257 307 284 257 263 267 276 291 319 289 266 254 242 254 247 220 218 221 199 183 170 215 154 177 183 184 168 172 160 181 181 179 185 171
299 295 313 308 297 293 278 280 287 251 294 261 296 273 284 266 291 281 285 284 290 269 257 254 255 246 230 211 213 202 193 160 162 197 204 177 173 191 190 187 163 190 186 180
302 298 298 297 286 295 291 285 281 277 270 280 281 282 271 283 312 272 277 271 285 264 278 255 255 247 255 238 219 247 204 192 189 165 170 174 195 201 195 179 175 161 171 180
311 302 292 308 295 296 284 284 284 282 279 275 275 277 277 275 308 316 288 274 267 272 269 253 257 247 249 255 252 225 213 198 189 181 181 181 181 220 215 210 200 165 166 171
326 306 296 292 294 292 294 296 284 279 281 283 275 269 270 273 272 281 305 304 269 266 269 269 263 252 254 255 255 250 255 238 206 194 189 178 178 179 180 187 217 213 191 178
302 346 316 302 291 292 283 279 289 294 292 286 286 274 244 271 280 281 261 303 289 270 269 271 265 265 269 179 250 252 251 252 251 242 252 220 187 187 190 189 188 188 209 213
295 301 316 330 319 314 307 280 280 276 273 281 259 268 262 267 274 286 291 274 281 311 272 268 268 272 271 269 176 273 274 271 275 274 270 282 278 283 271 223 252 175 176 188
298 295 302 302 323 330 321 315 314 312 312 282 276 270 279 278 276 273 281 293 292 289 304 319 293 271 264 269 277 275 277 282 275 274 265 252 266 264 264 271 262 243 249 254
297 288 295 297 295 295 304 291 302 311 313 317 318 280 278 280 281 296 296 301 307 320 329 325 333 276 296 318 319 288 285 276 273 273 270 155 263 262 266 264 253 251 254 252
296 287 289 298 292 294 286 286 282 293 294 307 303 293 296 292 290 286 281 276 283 289 310 316 313 332 315 340 292 322 342 268 314 227 331 314 307 289 275 267 269 285 283 277
301 290 284 288 294 289 284 282 280 283 285 291 281 285 281 285 287 285 289 282 302 299 287 303 295 292 321 297 335 293 284 355 304 331 322 309 311 319 321 280 280 271 265 266
301 294 289 285 294 292 281 283 280 283 283 281 277 281 286 283 278 280 283 280 279 283 269 278 286 295 296 309 315 309 262 273 301 299 269 270 266 262 262 251 256 285 275 264
306 293 288 278 281 276 282 291 288 290 277 276 279 281 266 276 274 262 269 272 266 265 269 270 279 273 276 297 282 304 293 296 290 278 265 250 248 259 251 250 262 286 268 259
321 301 291 286 279 269 271 279 291 301 288 284 283 281 282 280 266 271 275 267 261 269 262 264 263 268 270 269 287 284 276 278 280 277 282 261 259 247 266 261 256 257 253 250
321 303 297 293 288 278 277 269 276 272 279 290 293 300 295 280 275 277 273 271 271 263 257 273 269 251 250 257 264 272 281 285 295 274 266 277 267 264 269 278 271 257 251 251
341 316 295 283 293 286 282 275 272 274 276 271 293 304 309 306 299 288 279 274 275 277 269 267 269 263 259 261 253 260 254 253 254 260 274 291 273 264 256 254 253 256 252 253
343 326 297 290 235 285 288 281 279 275 275 272 274 287 287 288 287 290 298 303 297 273 276 267 274 270 266 256 262 254 255 262 259 270 268 272 261 262 272 275 278 273 264 257
345 326 298 290 260 282 290 286 282 277 273 274 267 271 275 283 276 289 304 304 296 275 284 266 262 268 262 257 259 258 258 252 260 251 259 274 273 270 266 259 247 246 248 240
Wind_Speed
60 57 59 63 64 69 77 80 86 91 89 91 89 86 82 78 79 80 90 90 92 92 91 90 84 78 91 97 65 79 75 70 73 73 74 70 70 71 69 68 67 66 68 71
47 49 52 62 61 66 73 79 85 88 87 87 88 87 88 84 76 83 90 94 93 98 87 92 88 85 92 94 97 96 79 77 76 78 80 76 73 74 74 70 70 69 70 69
39 45 50 57 61 61 67 74 82 86 87 85 84 87 84 87 87 84 83 87 96 96 96 90 90 93 88 96 97 80 95 93 89 84 79 77 76 76 70 69 69 69 69 69
34 38 45 48 58 60 63 69 73 78 83 84 83 84 84 89 89 88 88 87 91 98 96 94 94 93 94 92 84 79 94 92 95 92 91 87 84 83 81 76 76 76 76 73
30 36 43 45 55 60 58 63 65 67 74 83 84 84 86 90 89 92 92 88 91 93 97 96 95 93 92 81 90 80 84 78 95 93 93 94 94 80 83 83 85 86 84 82
25 40 42 44 47 55 56 57 59 63 67 70 81 83 88 86 90 94 95 92 92 91 94 99 98 96 93 91 81 91 93 85 81 93 85 91 96 81 68 60 61 79 77 78
21 36 37 38 42 49 53 56 56 56 41 63 73 73 80 84 85 92 95 96 94 94 94 98 99 101 90 96 95 87 89 98 87 75 87 93 94 93 95 96 93 87 85 75
28 29 31 38 40 45 54 55 54 53 55 39 62 62 69 73 79 88 91 92 95 94 98 91 100 102 106 104 90 96 92 90 90 92 92 83 90 93 67 86 91 94 94 81
24 26 34 36 40 41 45 43 54 46 56 33 53 62 67 70 75 74 75 93 101 99 99 99 98 101 103 106 99 90 82 101 78 89 92 93 84 88 83 96 97 96 100 95
15 19 29 34 38 43 41 45 45 51 43 52 41 57 55 69 72 73 76 86 95 105 102 102 103 99 101 101 103 100 95 83 84 96 99 90 90 98 100 100 84 101 102 101
23 23 26 30 31 39 46 46 45 46 45 42 41 50 60 61 55 78 81 84 92 98 103 104 104 103 102 99 99 100 99 95 94 88 89 92 100 103 102 95 93 86 93 99
32 28 27 32 36 39 40 44 42 42 42 42 45 46 53 61 51 55 89 87 91 95 102 101 106 104 104 103 98 96 98 98 96 96 97 96 97 108 109 109 106 90 89 95
39 35 33 33 32 34 38 45 47 47 47 44 46 44 51 56 67 65 59 77 97 98 100 104 111 104 106 104 100 96 95 92 98 101 102 98 97 98 99 101 110 110 105 95
27 32 47 47 37 37 36 38 38 40 37 38 32 42 66 57 60 66 73 58 93 96 100 104 104 107 111 66 96 97 97 99 97 90 97 102 104 105 105 104 104 103 106 106
29 30 30 41 47 49 48 42 42 40 43 39 51 47 58 61 61 55 53 67 69 68 98 98 100 105 105 106 65 108 107 107 106 105 105 100 98 96 94 90 83 93 93 102
32 30 32 30 24 32 39 40 40 41 43 44 50 47 58 56 55 56 55 54 62 71 62 59 95 99 96 100 104 104 105 106 98 95 90 84 90 90 88 83 83 87 85 83
35 31 31 29 26 24 18 27 28 25 26 35 37 52 53 53 52 43 41 42 44 40 37 40 42 75 74 69 80 103 104 100 94 94 91 49 89 91 95 88 78 80 81 83
38 36 32 32 30 24 29 32 29 23 24 23 31 40 39 41 41 43 44 48 47 43 31 36 38 34 43 34 72 58 52 67 77 65 64 75 79 82 86 84 86 88 84 82
43 39 34 31 30 27 32 33 32 30 29 26 29 34 38 40 39 39 41 42 31 27 26 25 34 36 26 43 31 61 66 42 62 52 55 59 63 50 48 74 73 72 73 73
45 42 37 32 31 29 35 36 33 31 33 32 33 36 37 39 39 44 36 36 34 27 34 26 26 26 28 26 29 33 64 63 47 54 63 63 63 63 63 62 64 44 54 63
48 44 37 35 29 27 37 38 32 33 32 32 35 38 34 38 41 34 36 39 37 35 33 31 26 27 26 26 30 24 29 28 40 51 54 59 59 58 60 60 55 36 44 51
48 43 39 37 34 34 34 26 26 26 32 34 35 37 41 43 38 39 43 41 37 38 35 35 33 29 26 28 25 32 33 34 36 39 40 55 56 59 47 50 52 49 53 53
45 41 39 36 37 37 33 31 30 29 28 27 29 33 38 39 39 41 43 44 43 39 35 39 38 34 33 31 30 29 27 28 35 39 42 42 44 45 45 49 49 52 54 56
48 41 36 32 35 36 37 31 29 29 29 31 24 23 26 31 37 42 42 39 39 43 43 39 41 37 37 37 35 33 34 34 34 34 33 36 48 50 49 48 49 51 55 59
43 40 37 37 21 33 35 32 33 32 30 30 27 22 20 20 21 25 32 35 38 36 37 36 36 37 38 36 38 37 36 34 34 34 34 38 40 40 41 42 40 37 36 38
39 39 37 41 23 29 28 30 31 29 28 28 28 25 21 20 20 20 22 23 26 31 33 34 33 34 36 37 37 38 40 36 33 34 34 32 34 34 32 31 36 38 38 42
Wind_Direction
202 205 209 211 211 211 214 214 215 220 219 220 222 225 226 226 224 224 223 227 228 228 230 233 237 240 237 236 247 245 246 249 251 253 254 253 254 255 257 259 262 265 268 271
199 205 207 212 209 211 212 213 217 220 222 221 222 225 227 228 227 225 224 225 229 230 233 232 235 239 236 238 238 241 245 247 248 250 251 252 254 256 258 261 263 265 268 269
201 203 202 206 210 210 213 215 216 218 222 224 221 226 230 230 231 230 228 227 228 232 233 234 235 235 239 236 240 242 241 243 247 250 252 254 255 257 264 266 267 268 269 272
202 204 208 208 211 212 213 215 218 220 222 225 225 222 231 232 233 232 230 230 231 229 233 235 236 236 237 240 245 246 245 246 244 249 250 253 255 256 259 262 264 266 268 271
197 203 197 205 210 214 214 217 218 220 222 225 227 225 225 229 235 235 235 231 233 232 231 236 238 239 240 241 243 249 249 249 246 249 248 248 253 257 258 259 260 262 266 271
203 199 202 209 207 215 217 218 221 222 222 224 227 227 230 228 229 234 238 236 232 236 234 233 237 239 240 241 245 244 246 251 252 248 254 253 252 258 262 264 265 268 271 273
205 203 207 210 206 215 219 221 222 223 227 226 229 228 229 230 229 233 234 237 238 233 234 234 236 238 241 240 241 246 246 245 251 249 250 254 253 256 258 261 265 267 269 272
216 208 215 212 209 208 218 220 221 223 223 221 228 228 227 227 226 228 234 235 237 238 237 236 234 239 237 239 242 242 245 248 248 250 251 256 255 256 261 263 265 266 268 272
225 217 218 214 214 219 222 223 222 225 223 223 226 230 231 227 226 225 226 223 227 234 238 238 235 235 239 239 244 246 248 246 252 253 254 256 260 262 260 262 264 265 266 271
242 224 226 222 218 219 223 229 228 224 226 226 223 228 228 231 225 228 226 226 226 230 236 238 240 238 236 239 242 245 246 246 248 249 251 255 257 257 259 262 262 264 266 268
252 235 229 223 217 222 223 226 228 228 224 229 229 229 232 229 227 230 228 230 228 233 235 238 240 244 243 239 237 243 244 247 247 250 252 253 254 255 256 259 262 265 266 268
253 247 238 234 226 223 223 229 232 234 234 231 227 229 232 234 237 234 226 230 234 233 234 239 239 244 247 247 246 240 242 246 249 249 249 251 253 253 255 257 260 265 269 270
239 250 246 242 238 231 226 227 226 227 228 232 230 229 235 237 235 235 236 230 230 234 236 237 238 246 248 250 251 252 251 246 244 247 249 251 253 255 257 258 258 260 262 269
251 234 239 243 240 240 232 231 235 236 233 235 231 232 236 244 240 237 236 240 230 235 237 238 241 243 245 253 254 255 256 256 257 253 256 253 251 253 254 256 258 260 261 263
238 241 238 234 239 243 244 236 235 228 224 223 225 222 234 239 245 247 248 241 239 243 239 242 244 246 249 250 254 255 256 258 259 259 262 262 263 264 264 267 267 267 268 265
233 235 238 235 231 237 240 245 248 246 243 224 224 229 236 242 247 248 248 248 246 241 247 249 246 248 253 254 256 257 259 260 260 261 261 260 267 268 266 265 263 260 262 264
227 228 238 237 236 237 222 235 233 229 234 234 225 231 239 244 246 253 255 254 257 261 260 260 255 250 249 247 248 253 256 258 260 261 262 267 265 263 265 268 264 264 267 267
219 223 227 233 236 229 224 237 244 236 236 224 217 226 231 238 240 244 248 253 254 256 261 257 256 254 248 257 248 249 248 251 249 258 252 254 255 261 263 264 267 266 266 267
213 220 220 223 231 225 234 238 243 237 238 229 228 230 235 238 244 246 246 254 255 248 264 260 255 254 264 252 250 247 249 244 249 253 253 252 254 259 259 260 261 262 264 266
208 217 219 218 225 224 238 238 244 246 246 242 239 236 233 238 238 245 249 254 256 250 252 246 255 268 267 264 255 246 251 247 246 249 252 254 256 258 260 260 261 253 257 263
205 213 217 222 214 218 235 240 241 245 244 246 248 248 253 246 244 257 254 254 257 259 257 258 253 253 260 261 255 257 249 251 252 251 252 256 257 257 260 261 262 260 259 265
207 208 215 218 216 224 240 237 241 241 241 243 243 243 245 245 253 254 252 255 259 256 261 261 259 255 254 257 257 252 252 253 250 251 252 251 254 257 256 257 262 261 264 267
210 208 214 219 219 226 233 236 237 243 240 241 245 246 246 246 247 248 252 254 257 259 259 259 256 255 257 259 257 254 250 253 249 249 253 253 255 254 253 252 251 255 262 266
217 210 214 219 223 226 233 237 238 241 240 244 247 244 240 242 245 250 253 253 252 250 253 257 254 253 256 257 259 261 255 252 251 254 256 254 251 255 256 257 259 260 262 265
225 218 222 222 237 224 229 233 234 237 241 245 247 243 242 244 250 256 257 254 250 247 249 250 255 253 252 253 255 255 257 262 257 260 255 252 249 251 254 256 255 251 251 251
233 223 218 230 242 230 231 234 236 238 244 248 254 253 248 248 254 270 259 250 244 244 244 247 252 253 251 251 256 253 254 252 255 251 253 249 247 245 241 240 246 249 250 256